Weather History for KCTY - December, 2012

Change the Weather History Date:

Wednesday, December 12, 2012

  Actual Average Record
Temperature  
Mean Temperature 60 °F 55 °F  
Max Temperature 64 °F 67 °F 81 °F (2007)
Min Temperature 56 °F 44 °F 30 °F (2005)
Degree Days  
Heating Degree Days 5 10  
Month to date heating degree days 16 108  
Since 1 July heating degree days 224 276  
Cooling Degree Days 0 1  
Month to date cooling degree days 7 12  
Year to date cooling degree days 2804 2614  
Growing Degree Days 9 (Base 50)    
Moisture  
Dew Point 57 °F    
Average Humidity 93    
Maximum Humidity 100    
Minimum Humidity 84    
Precipitation  
Precipitation 0.49 in 0.09 in 0.49 in (2012)
Month to date precipitation 0.93 1.10  
Year to date precipitation 58.62 46.94  
Sea Level Pressure  
Sea Level Pressure 30.08 in    
Wind  
Wind Speed 6 mph (North)    
Max Wind Speed 15 mph    
Max Gust Speed 33 mph    
T = Trace of Precipitation, MM = Missing Value Source: NWS Daily Summary

Daily Weather History Graph

Daily Weather History Graph

Search for Another Location

Airport or City:

Trip Planner

Search our weather history database for the weather conditions in past years. The results will help you decide how hot, cold, wet, or windy it might be!

Date:

Astronomy

Dec. 12, 2012 Rise Set
Actual Time 7:18 AM EST 5:34 PM EST
Civil Twilight 6:52 AM EST 6:00 PM EST
Nautical Twilight 6:22 AM EST 6:30 PM EST
Astronomical Twilight 5:53 AM EST 6:59 PM EST
Moon 6:23 AM EST (12/12) 5:09 PM EST (12/12)
Length of Visible Light 11h 08m
Length of Day
10h 16m
Waning Crescent, 1% of the Moon is Illuminated
Dec 12
Waning Crescent
Dec 13
New
Dec 20
First Quarter
Dec 28
Full
Jan 4
Last Quarter

Hourly Weather History & Observations

Time (EST) Temp. Dew Point Humidity Pressure Visibility Wind Dir Wind Speed Gust Speed Precip Events Conditions
12:53 AM 63.0 °F 61.0 °F 93% 30.08 in - North 4.6 mph - N/A   Unknown
1:53 AM 62.1 °F 60.1 °F 93% 30.06 in - North 8.1 mph - N/A   Unknown
2:53 AM 61.0 °F 57.9 °F 90% 30.04 in - North 10.4 mph - N/A   Unknown
3:53 AM 59.0 °F 57.0 °F 93% 30.04 in - NNE 6.9 mph - 0.09 in   Unknown
4:53 AM 57.9 °F 55.9 °F 93% 30.04 in - North 6.9 mph - 0.03 in   Unknown
5:53 AM 57.0 °F 55.9 °F 96% 30.04 in - NE 4.6 mph - N/A   Unknown
6:53 AM 57.0 °F 55.9 °F 96% 30.06 in - North 5.8 mph - N/A   Unknown
7:53 AM 57.9 °F 55.9 °F 93% 30.07 in - ENE 3.5 mph - N/A   Unknown
8:53 AM 59.0 °F 57.0 °F 93% 30.10 in - Calm Calm - N/A   Unknown
9:53 AM 61.0 °F 59.0 °F 93% 30.12 in - Calm Calm - N/A   Unknown
10:53 AM 62.1 °F 59.0 °F 90% 30.12 in - NNW 9.2 mph - N/A   Unknown
11:53 AM 60.1 °F 57.0 °F 90% 30.10 in - NNE 9.2 mph - N/A   Unknown
12:53 PM 59.0 °F 55.9 °F 90% 30.07 in - NNE 12.7 mph - N/A   Unknown
1:53 PM 60.1 °F 55.9 °F 86% 30.06 in - NNE 8.1 mph - N/A   Unknown
2:53 PM 59.0 °F 55.9 °F 90% 30.09 in - North 10.4 mph - 0.01 in   Unknown
3:53 PM 55.9 °F 55.0 °F 97% 30.12 in - Variable 3.5 mph - 0.07 in   Unknown
4:53 PM 57.9 °F 57.0 °F 97% 30.06 in - Variable 3.5 mph - 0.29 in   Unknown
5:53 PM 59.0 °F 57.0 °F 93% 30.05 in - ENE 3.5 mph - N/A   Unknown
6:53 PM 59.0 °F 57.9 °F 96% 30.07 in - Calm Calm - N/A   Unknown
7:53 PM 59.0 °F 57.0 °F 93% 30.10 in - Calm Calm - N/A   Unknown
8:53 PM 57.9 °F 57.0 °F 97% 30.11 in - NNW 3.5 mph - N/A   Unknown
9:53 PM 59.0 °F 57.9 °F 96% 30.13 in - NNW 4.6 mph - N/A   Unknown
10:53 PM 59.0 °F 57.9 °F 96% 30.14 in - North - - N/A   Unknown
11:53 PM 57.9 °F 55.9 °F 93% 30.14 in - North 9.2 mph - N/A   Unknown